Location: GMARS
(34.2910°N, 116.3838°W)
Time: 01:21:55
(UTC-08:00)

Envisat - Pass Details

Date: 25 October 2019
Orbit: 764 x 766 km, 98.1° (Epoch: 13 November)

Event Time Altitude Azimuth Distance (km) Brightness Sun altitude
Rises 06:12:43 0° 40° (NE) 3,231 6.7 -10.2°
Reaches altitude 10° 06:17:07 10° 76° (ENE) 2,298 6.7 -9.3°
Maximum altitude 06:18:24 11° 91° (E) 2,234 7.0 -9.1°
Drops below altitude 10° 06:19:41 10° 106° (ESE) 2,294 7.1 -8.8°
Sets 06:24:01 0° 142° (SE) 3,213 7.0 -7.9°
